| time (UTC) | temp F | wind direction | speed knots | gust knots | rain 1hr in | rain 24hr in | rain mn in | humidity % | barometer mb |
| 20260505165227 | 74 | 171 | 7.0 | 9.6 | 0.00 | 0.00 | 0.00 | 47 | 1013.8 |
| 20260505164226 | 74 | 183 | 9.6 | 13.0 | 0.00 | 0.00 | 0.00 | 47 | 1013.8 |
| 20260505163227 | 74 | 187 | 7.0 | 10.4 | 0.00 | 0.00 | 0.00 | 47 | 1014.0 |
| 20260505162225 | 73 | 185 | 7.8 | 10.4 | 0.00 | 0.00 | 0.00 | 48 | 1013.9 |
| 20260505161226 | 73 | 177 | 8.7 | 13.9 | 0.00 | 0.00 | 0.00 | 49 | 1014.0 |
| 20260505152525 | 71 | 178 | 7.8 | 12.2 | 0.00 | 0.00 | 0.00 | 52 | 1014.2 |
| 20260505140526 | 69 | 171 | 6.1 | 9.6 | 0.00 | 0.00 | 0.00 | 55 | 1014.4 |
| 20260505124727 | 65 | 176 | 8.7 | 13.0 | 0.00 | 0.00 | 0.00 | 63 | 1014.4 |
| 20260505123824 | 65 | 207 | 6.1 | 10.4 | 0.00 | 0.00 | 0.00 | 62 | 1014.3 |
| 20260505122826 | 65 | 199 | 5.2 | 8.7 | 0.00 | 0.00 | 0.00 | 63 | 1014.4 |
| 20260505121841 | 64 | 191 | 5.2 | 7.8 | 0.00 | 0.00 | 0.00 | 63 | 1014.2 |
| 20260505120827 | 64 | 180 | 4.3 | 7.8 | 0.00 | 0.00 | 0.00 | 64 | 1014.3 |
| 20260505115825 | 65 | 175 | 6.1 | 7.8 | 0.00 | 0.00 | 0.00 | 65 | 1014.1 |
| 20260505114824 | 64 | 170 | 6.1 | 9.6 | 0.00 | 0.00 | 0.00 | 63 | 1014.0 |
| 20260505112826 | 64 | 176 | 7.0 | 9.6 | 0.00 | 0.00 | 0.00 | 65 | 1013.9 |
| 20260505111826 | 63 | 197 | 7.0 | 11.3 | 0.00 | 0.00 | 0.00 | 66 | 1013.8 |
| 20260505110826 | 63 | 187 | 5.2 | 7.0 | 0.00 | 0.00 | 0.00 | 65 | 1013.8 |
| 20260505101924 | 63 | 181 | 5.2 | 7.0 | 0.00 | 0.00 | 0.00 | 67 | 1013.6 |
| 20260505100942 | 63 | 180 | 5.2 | 7.0 | 0.00 | 0.00 | 0.00 | 67 | 1013.5 |
| 20260505100029 | 63 | 181 | 6.1 | 8.7 | 0.00 | 0.00 | 0.00 | 67 | 1013.4 |
| 20260505095024 | 63 | 180 | 4.3 | 6.1 | 0.00 | 0.00 | 0.00 | 66 | 1013.4 |
| 20260505094024 | 63 | 183 | 5.2 | 7.8 | 0.00 | 0.00 | 0.00 | 66 | 1013.3 |
| 20260505093026 | 63 | 173 | 6.1 | 8.7 | 0.00 | 0.00 | 0.00 | 65 | 1013.3 |
| 20260505092125 | 63 | 181 | 7.0 | 8.7 | 0.00 | 0.00 | 0.00 | 65 | 1013.2 |
| 20260505091126 | 63 | 180 | 7.0 | 8.7 | 0.00 | 0.00 | 0.00 | 65 | 1013.2 |
| 20260505090125 | 63 | 180 | 6.1 | 7.8 | 0.00 | 0.00 | 0.00 | 66 | 1013.2 |
| 20260505085125 | 64 | 173 | 5.2 | 8.7 | 0.00 | 0.00 | 0.00 | 65 | 1013.2 |
| 20260505084125 | 64 | 188 | 5.2 | 6.1 | 0.00 | 0.00 | 0.00 | 64 | 1013.2 |
| 20260505082126 | 64 | 179 | 7.0 | 9.6 | 0.00 | 0.00 | 0.00 | 63 | 1013.1 |
| 20260505081124 | 64 | 180 | 7.0 | 8.7 | 0.00 | 0.00 | 0.00 | 62 | 1013.1 |
| 20260505080126 | 64 | 193 | 7.8 | 12.2 | 0.00 | 0.00 | 0.00 | 63 | 1013.1 |
| 20260505075124 | 64 | 183 | 5.2 | 7.8 | 0.00 | 0.00 | 0.00 | 63 | 1013.1 |
| 20260505074125 | 64 | 218 | 7.0 | 12.2 | 0.00 | 0.00 | 0.00 | 64 | 1013.0 |
| 20260505073125 | 64 | 184 | 4.3 | 5.2 | 0.00 | 0.00 | 0.00 | 64 | 1013.1 |
| 20260505072125 | 64 | 194 | 6.1 | 7.8 | 0.00 | 0.00 | 0.00 | 66 | 1012.9 |
| 20260505070224 | 64 | 215 | 4.3 | 7.0 | 0.00 | 0.00 | 0.00 | 64 | 1013.0 |
| 20260505065224 | 64 | 180 | 7.0 | 8.7 | 0.00 | 0.00 | 0.00 | 63 | 1013.1 |
| 20260505064225 | 64 | 195 | 5.2 | 8.7 | 0.00 | 0.00 | 0.00 | 64 | 1013.0 |
| 20260505063224 | 64 | 179 | 7.8 | 11.3 | 0.00 | 0.00 | 0.00 | 64 | 1013.0 |
| 20260505062226 | 64 | 183 | 8.7 | 10.4 | 0.00 | 0.00 | 0.00 | 63 | 1012.9 |
| 20260505061226 | 64 | 179 | 7.8 | 9.6 | 0.00 | 0.00 | 0.00 | 65 | 1013.0 |
| 20260505060225 | 64 | 175 | 6.1 | 9.6 | 0.00 | 0.00 | 0.00 | 65 | 1013.0 |
| 20260505055323 | 64 | 175 | 7.0 | 8.7 | 0.00 | 0.00 | 0.00 | 67 | 1013.0 |
| 20260505054325 | 64 | 180 | 7.0 | 12.2 | 0.00 | 0.00 | 0.00 | 66 | 1013.1 |
| 20260505053324 | 64 | 179 | 6.1 | 9.6 | 0.00 | 0.00 | 0.00 | 67 | 1013.0 |
| 20260505051325 | 63 | 181 | 5.2 | 7.0 | 0.00 | 0.00 | 0.00 | 69 | 1013.1 |
| 20260505050325 | 63 | 180 | 6.1 | 11.3 | 0.00 | 0.00 | 0.00 | 70 | 1013.0 |
| 20260505041325 | 62 | 180 | 3.5 | 4.3 | 0.00 | 0.00 | 0.00 | 71 | 1012.9 |
| 20260505040324 | 63 | 189 | 2.6 | 5.2 | 0.00 | 0.00 | 0.00 | 70 | 1013.0 |
| 20260505035419 | 63 | 209 | 1.7 | 3.5 | 0.00 | 0.00 | 0.00 | 70 | 1012.8 |
| 20260505034517 | 63 | 182 | 2.6 | 3.5 | 0.00 | 0.00 | 0.00 | 70 | 1012.8 |
| 20260505033519 | 63 | 180 | 2.6 | 4.3 | 0.00 | 0.00 | 0.00 | 71 | 1012.9 |
| 20260505032520 | 63 | 180 | 0.0 | 0.0 | 0.00 | 0.00 | 0.00 | 70 | 1012.7 |
| 20260505031619 | 63 | 180 | 4.3 | 6.1 | 0.00 | 0.00 | 0.00 | 70 | 1012.9 |
| 20260505030719 | 63 | 178 | 3.5 | 6.1 | 0.00 | 0.00 | 0.00 | 71 | 1012.7 |
| 20260505025817 | 63 | 180 | 1.7 | 3.5 | 0.00 | 0.00 | 0.00 | 70 | 1012.7 |
| 20260505024818 | 63 | 180 | 5.2 | 7.8 | 0.00 | 0.00 | 0.00 | 69 | 1012.8 |
| 20260505023818 | 63 | 177 | 4.3 | 7.0 | 0.00 | 0.00 | 0.00 | 69 | 1012.7 |
| 20260505022818 | 64 | 186 | 2.6 | 4.3 | 0.00 | 0.00 | 0.00 | 68 | 1012.7 |
| 20260505021819 | 64 | 180 | 3.5 | 7.0 | 0.00 | 0.00 | 0.00 | 65 | 1012.8 |
| 20260505020819 | 64 | 180 | 3.5 | 6.1 | 0.00 | 0.00 | 0.00 | 64 | 1012.8 |
| 20260505015819 | 65 | 178 | 2.6 | 4.3 | 0.00 | 0.00 | 0.00 | 64 | 1012.7 |
| 20260505013017 | 66 | 180 | 5.2 | 9.6 | 0.00 | 0.00 | 0.00 | 61 | 1012.7 |
| 20260505012019 | 66 | 180 | 6.1 | 8.7 | 0.00 | 0.00 | 0.00 | 59 | 1012.5 |
| 20260505011117 | 66 | 167 | 2.6 | 6.1 | 0.00 | 0.00 | 0.00 | 57 | 1012.5 |
| 20260505010118 | 66 | 175 | 5.2 | 7.0 | 0.00 | 0.00 | 0.00 | 54 | 1012.3 |
| 20260505004121 | 67 | 184 | 3.5 | 5.2 | 0.00 | 0.00 | 0.00 | 49 | 1012.2 |
| 20260505003118 | 68 | 180 | 1.7 | 4.3 | 0.00 | 0.00 | 0.00 | 46 | 1012.2 |
| 20260505002120 | 68 | 177 | 3.5 | 6.1 | 0.00 | 0.00 | 0.00 | 46 | 1012.2 |
| 20260505000118 | 69 | 180 | 5.2 | 6.1 | 0.00 | 0.00 | 0.00 | 45 | 1012.1 |
| 20260504235117 | 69 | 171 | 4.3 | 6.1 | 0.00 | 0.00 | 0.00 | 44 | 1012.1 |
| 20260504234216 | 0 | 0 | 0.0 | 0.0 | 0.00 | 0.00 | 0.00 | 100 | |
| 20260504233217 | 70 | 180 | 6.1 | 7.0 | 0.00 | 0.00 | 0.00 | 43 | 1011.9 |
| 20260504232314 | 70 | 179 | 5.2 | 7.0 | 0.00 | 0.00 | 0.00 | 42 | 1012.0 |
| 20260504231414 | 70 | 209 | 5.2 | 7.0 | 0.00 | 0.00 | 0.00 | 41 | 1011.9 |
| 20260504225415 | 71 | 212 | 5.2 | 7.8 | 0.00 | 0.00 | 0.00 | 39 | 1011.8 |
| 20260504223516 | 72 | 180 | 6.1 | 9.6 | 0.00 | 0.00 | 0.00 | 37 | 1011.8 |
| 20260504222516 | 73 | 180 | 8.7 | 11.3 | 0.00 | 0.00 | 0.00 | 36 | 1011.8 |
| 20260504221615 | 73 | 184 | 4.3 | 7.0 | 0.00 | 0.00 | 0.00 | 37 | 1011.9 |
| 20260504220614 | 74 | 193 | 7.0 | 8.7 | 0.00 | 0.00 | 0.00 | 38 | 1011.8 |
| 20260504214614 | 74 | 180 | 7.8 | 11.3 | 0.00 | 0.00 | 0.00 | 37 | 1011.9 |
| 20260504213615 | 74 | 187 | 6.1 | 9.6 | 0.00 | 0.00 | 0.00 | 36 | 1011.9 |
| 20260504212615 | 74 | 173 | 6.1 | 7.8 | 0.00 | 0.00 | 0.00 | 38 | 1012.0 |
| 20260504211615 | 74 | 193 | 6.1 | 10.4 | 0.00 | 0.00 | 0.00 | 36 | 1012.1 |
| 20260504205615 | 74 | 185 | 4.3 | 9.6 | 0.00 | 0.00 | 0.00 | 34 | 1012.1 |
| 20260504204614 | 74 | 179 | 8.7 | 12.2 | 0.00 | 0.00 | 0.00 | 34 | 1012.0 |
| 20260504203614 | 73 | 181 | 8.7 | 12.2 | 0.00 | 0.00 | 0.00 | 32 | 1012.1 |
| 20260504202618 | 73 | 176 | 9.6 | 18.2 | 0.00 | 0.00 | 0.00 | 32 | 1012.1 |
| 20260504201714 | 73 | 184 | 7.8 | 9.6 | 0.00 | 0.00 | 0.00 | 33 | 1012.3 |
| 20260504200715 | 73 | 178 | 8.7 | 11.3 | 0.00 | 0.00 | 0.00 | 33 | 1012.3 |
| 20260504194815 | 72 | 180 | 7.0 | 8.7 | 0.00 | 0.00 | 0.00 | 34 | 1012.5 |
| 20260504193914 | 72 | 179 | 7.8 | 10.4 | 0.00 | 0.00 | 0.00 | 33 | 1012.8 |
| 20260504193013 | 72 | 179 | 7.8 | 9.6 | 0.00 | 0.00 | 0.00 | 34 | 1013.0 |
| 20260504192016 | 71 | 179 | 6.1 | 8.7 | 0.00 | 0.00 | 0.00 | 32 | 1013.1 |
| 20260504191016 | 71 | 188 | 8.7 | 12.2 | 0.00 | 0.00 | 0.00 | 33 | 1013.2 |
| 20260504190014 | 70 | 187 | 6.1 | 7.8 | 0.00 | 0.00 | 0.00 | 34 | 1013.3 |
| 20260504185017 | 70 | 172 | 7.0 | 12.2 | 0.00 | 0.00 | 0.00 | 34 | 1013.4 |
| 20260504184113 | 70 | 181 | 8.7 | 10.4 | 0.00 | 0.00 | 0.00 | 33 | 1013.6 |
| 20260504183114 | 69 | 166 | 2.6 | 4.3 | 0.00 | 0.00 | 0.00 | 33 | 1013.8 |
| 20260504182114 | 69 | 180 | 7.8 | 9.6 | 0.00 | 0.00 | 0.00 | 32 | 1013.8 |
| 20260504180113 | 68 | 180 | 8.7 | 11.3 | 0.00 | 0.00 | 0.00 | 34 | 1014.2 |
| 20260504175114 | 68 | 177 | 6.1 | 8.7 | 0.00 | 0.00 | 0.00 | 35 | 1014.3 |
| 20260504174114 | 68 | 199 | 7.0 | 9.6 | 0.00 | 0.00 | 0.00 | 34 | 1014.4 |
| 20260504173114 | 68 | 177 | 4.3 | 8.7 | 0.00 | 0.00 | 0.00 | 33 | 1014.4 |
| 20260504172115 | 68 | 177 | 5.2 | 7.8 | 0.00 | 0.00 | 0.00 | 34 | 1014.6 |
| 20260504171114 | 68 | 184 | 6.1 | 9.6 | 0.00 | 0.00 | 0.00 | 34 | 1014.6 |
| 20260504170115 | 68 | 180 | 6.1 | 7.8 | 0.00 | 0.00 | 0.00 | 34 | 1014.6 |